RH
75 78 52 38 54 74 53 36 42 40 29 22 15 14 17 13 10 10 13 10 14 19 32 36 28 29 28 28 29 26 26 31 30 29 36 37 35 30 30 32 31 29 25 24 23 20 24
74 82 75 41 44 55 62 47 39 47 38 33 26 27 23 17 16 21 18 19 25 36 35 34 30 31 31 34 30 28 28 30 31 28 39 39 40 40 40 48 36 30 27 27 23 22 26
84 77 76 70 47 49 60 50 41 45 47 36 38 40 40 32 31 33 34 35 35 36 33 32 34 35 35 33 33 30 32 34 32 32 43 49 55 60 51 61 38 33 31 27 28 26 28
82 91 86 74 73 47 47 58 48 40 48 46 39 40 41 43 42 42 39 38 38 36 34 33 36 37 37 36 38 35 38 37 34 38 49 63 66 60 48 61 39 36 34 30 28 28 32
57 70 94 100 81 71 47 51 53 50 41 46 43 41 44 41 45 43 41 38 35 33 33 33 34 37 36 37 40 40 38 37 38 40 56 64 68 50 61 50 39 38 34 28 32 34 35
57 64 66 98 100 85 71 49 56 51 49 44 46 42 39 42 42 39 38 38 35 33 32 31 31 32 34 36 37 36 36 37 42 42 61 76 67 55 65 42 41 34 32 29 36 38 38
66 68 70 69 95 100 84 72 49 48 49 43 46 47 44 36 37 41 41 38 36 34 34 33 33 32 31 34 34 35 43 47 52 71 68 74 59 79 51 47 40 40 35 35 38 41 36
72 57 72 89 80 100 98 86 74 56 42 50 41 49 44 46 38 34 36 40 40 39 38 39 35 32 33 33 36 42 65 56 90 92 86 81 80 68 50 47 45 40 35 41 41 42 41
77 87 66 80 80 68 100 100 84 78 63 38 50 46 50 42 50 44 35 33 35 38 37 38 38 41 40 46 60 84 82 98 100 91 82 82 76 64 58 47 45 44 42 47 48 45 45
78 86 55 85 59 82 60 98 91 85 86 70 43 49 52 50 51 50 50 44 36 36 37 41 48 60 68 77 89 98 96 98 89 84 72 78 74 66 59 55 54 42 53 56 48 48 47
57 51 68 47 56 63 87 61 95 94 82 95 78 68 45 52 53 57 57 58 66 58 52 59 73 76 77 89 99 98 90 93 88 80 65 66 74 66 56 43 42 48 56 57 48 43 48
54 61 64 66 47 50 72 81 79 91 74 86 99 98 84 72 54 62 60 58 62 64 64 70 75 88 87 91 83 93 94 86 79 70 72 73 69 58 50 56 55 54 53 47 43 50 37
36 51 79 70 72 75 53 83 80 70 72 70 74 82 98 100 95 90 70 65 65 59 57 57 60 66 70 81 82 87 82 75 68 66 67 65 60 57 57 58 51 49 48 51 44 32 32
30 38 58 76 74 64 65 55 71 100 99 76 63 61 81 84 87 100 100 99 73 50 59 54 49 47 45 50 58 56 49 48 48 49 47 45 44 44 46 45 43 44 37 31 30 32 33
52 42 40 63 74 82 78 77 60 74 100 100 80 56 54 52 72 79 77 96 100 100 98 55 44 54 52 48 46 46 44 42 41 39 40 41 42 42 38 32 33 36 34 36 35 36 37
55 45 61 33 68 82 94 89 70 64 96 97 100 70 52 45 44 48 56 63 61 68 93 99 98 82 51 40 40 38 37 36 33 34 32 32 32 35 32 33 36 38 41 40 38 37 43
73 70 77 62 43 62 92 100 97 66 80 100 100 96 85 71 63 37 38 33 37 46 51 59 71 89 92 95 82 59 37 33 32 32 31 29 29 32 32 36 40 43 45 46 47 50 50
74 100 94 84 74 74 70 97 100 99 81 99 100 96 100 100 98 65 43 39 36 33 33 38 41 50 50 73 83 87 82 77 81 73 61 60 53 53 51 49 48 47 48 48 46 45 54
60 80 94 100 100 64 74 64 100 100 87 78 63 100 100 100 100 100 97 69 60 55 40 34 39 40 40 40 40 48 61 73 78 79 76 74 73 75 79 83 85 84 85 85 90 98 93
58 91 74 98 90 86 47 76 82 100 100 100 98 58 98 100 100 100 100 100 100 95 62 40 41 52 60 63 46 34 35 40 46 52 56 60 63 64 65 62 64 66 61 67 77 87 88
72 67 96 60 100 100 45 82 80 100 100 100 100 73 50 48 100 100 100 100 100 100 84 78 45 51 58 59 77 65 52 50 50 51 55 54 57 59 60 64 64 66 66 68 75 75 68
64 100 93 67 71 80 42 75 81 100 100 100 99 100 96 70 52 90 100 100 100 100 100 100 100 100 56 54 55 51 58 66 59 65 60 67 70 70 68 65 70 71 66 67 66 74 75
65 96 95 84 62 50 45 58 83 96 99 100 100 85 100 100 58 66 75 85 100 100 100 100 76 86 69 95 100 90 56 52 63 95 91 84 66 68 62 59 57 58 60 58 58 67 56
93 99 85 86 58 64 71 56 88 100 98 100 100 83 65 99 98 77 59 78 95 100 100 100 100 97 88 90 99 87 96 95 97 96 90 100 92 77 61 59 54 52 52 55 60 68 79
98 83 72 80 94 61 52 65 100 100 63 91 100 100 98 69 80 100 92 74 84 84 97 100 100 99 83 87 83 84 78 74 92 81 76 92 74 67 67 71 70 65 62 74 88 57 69
100 100 100 100 100 91 61 46 84 100 91 56 94 100 100 79 70 65 74 100 99 90 79 62 66 78 98 96 67 74 66 66 61 69 91 83 75 70 75 81 88 81 63 60 55 69 56
100 100 98 100 100 100 100 80 84 98 78 84 44 71 100 84 79 74 80 68 75 89 100 100 100 90 66 71 59 64 62 56 53 52 61 57 57 60 58 59 65 71 85 56 49 50 48
100 100 100 100 100 100 100 100 100 80 91 86 85 68 77 100 79 74 82 89 85 87 71 78 82 90 100 91 91 78 89 69 70 83 100 94 99 87 72 67 67 66 58 53 51 49 41
100 100 100 100 100 100 100 100 100 100 100 100 100 95 89 91 99 99 87 100 98 99 96 93 95 80 88 100 95 91 79 86 100 100 92 84 93 96 86 89 73 61 61 62 52 47 46
Wind_Speed
55 59 63 63 63 65 71 69 72 74 69 63 51 39 30 25 22 26 33 43 55 67 74 83 89 86 82 77 73 71 67 62 57 53 50 50 47 47 45 42 41 37 37 36 33 33 30
52 56 60 62 63 61 65 66 63 69 70 65 57 48 42 37 33 35 42 50 58 65 72 79 82 80 77 73 70 67 62 59 56 52 51 49 47 44 41 38 39 36 38 36 35 33 31
49 53 56 59 60 61 59 62 60 60 63 61 58 53 50 47 44 47 51 55 57 61 66 70 76 75 73 70 67 65 61 57 55 52 50 49 46 44 42 40 40 38 37 36 36 34 32
45 48 53 55 57 58 57 57 58 54 55 57 54 53 51 50 49 50 50 51 51 52 55 61 67 71 70 67 64 62 59 56 56 53 51 48 46 47 45 42 42 39 37 37 38 36 35
44 44 47 49 53 55 56 52 53 52 48 48 49 48 47 46 45 44 44 44 45 45 47 52 59 65 66 63 61 58 56 56 53 50 49 48 50 48 44 44 44 38 38 39 39 39 38
43 48 43 45 46 50 51 52 47 48 47 43 40 40 39 40 37 37 38 38 38 38 41 45 49 56 58 59 57 55 55 52 49 47 47 48 50 46 45 46 42 40 42 42 42 42 41
43 45 46 47 43 42 47 47 47 43 43 43 37 33 30 30 30 32 30 31 34 35 36 39 43 47 49 50 49 49 48 48 47 47 49 50 47 46 48 43 43 43 44 44 43 42 42
39 43 44 47 41 35 38 42 42 42 38 37 38 34 28 25 21 22 24 27 30 31 33 37 41 42 44 45 46 47 47 47 50 50 49 49 46 48 47 46 45 45 46 44 45 43 44
37 36 39 39 39 35 32 34 36 38 37 34 31 33 30 25 22 17 15 18 24 29 30 33 37 39 43 45 47 48 48 49 51 49 48 48 48 49 49 48 46 48 47 47 47 47 50
34 32 33 33 37 35 35 30 31 31 33 32 29 26 27 26 22 18 16 14 14 18 27 33 36 38 41 45 45 45 46 48 47 47 47 49 51 51 51 50 50 50 50 51 52 51 53
33 35 30 26 31 34 31 30 23 26 28 27 26 24 22 20 19 17 13 11 11 13 19 23 29 33 36 38 40 43 43 44 46 48 49 51 53 53 54 53 53 53 54 56 56 58 60
27 27 32 26 27 31 29 26 23 21 21 21 19 19 20 18 15 12 9 7 7 10 14 20 26 31 34 36 40 42 43 44 46 48 49 52 54 55 56 57 57 57 58 60 61 62 60
32 28 31 30 32 30 31 27 22 20 21 21 16 13 11 11 12 10 7 3 1 4 11 19 24 29 33 38 42 45 45 47 48 50 52 54 55 57 59 60 60 62 63 62 61 56 51
36 38 31 26 30 31 30 30 28 24 26 22 21 16 13 10 7 5 3 5 2 6 10 12 17 25 32 38 42 44 46 48 51 53 54 55 56 56 59 61 61 62 58 54 50 48 49
37 36 40 36 30 32 35 31 31 26 28 28 26 24 24 19 17 12 9 11 11 11 11 13 18 21 24 28 33 38 44 48 51 52 53 56 55 55 55 54 52 50 50 51 52 53 54
51 40 40 42 41 38 35 35 31 30 28 29 28 26 24 27 25 24 22 21 19 20 20 21 21 22 24 28 32 37 38 40 41 44 45 46 45 48 49 49 51 52 55 57 60 59 59
57 54 45 47 45 42 38 40 36 33 31 32 31 31 33 35 34 33 33 32 30 29 29 28 28 30 30 31 32 32 34 36 40 44 47 50 49 52 52 55 55 56 57 58 59 60 62
62 60 55 51 50 50 47 42 46 43 37 34 38 36 37 37 34 37 35 34 35 36 36 34 35 35 37 40 40 40 41 41 43 44 45 47 47 50 52 55 57 60 62 65 67 68 70
66 63 62 58 53 54 55 50 48 48 42 42 38 42 43 42 41 43 40 41 42 43 42 43 41 41 41 43 46 47 48 50 52 52 52 54 54 56 56 60 62 64 67 70 72 73 76
73 68 65 65 65 59 60 55 53 53 53 49 45 42 47 51 46 46 45 44 44 45 44 46 46 45 45 40 47 48 52 54 56 57 59 60 63 66 66 68 65 68 70 72 75 78 82
82 76 74 71 69 67 63 60 59 59 60 53 53 49 51 47 50 50 49 49 47 42 43 44 47 50 50 51 45 45 46 48 50 52 54 57 55 58 62 66 69 71 74 76 75 80 84
88 85 81 77 71 67 68 66 62 65 69 66 57 55 57 54 52 55 52 52 53 53 46 48 49 50 52 54 59 55 55 51 52 52 55 55 56 59 57 60 62 65 67 70 74 78 80
98 92 85 81 81 79 71 70 66 64 67 70 66 58 61 57 56 58 61 59 58 61 56 56 53 55 59 57 55 56 61 60 61 62 68 66 66 68 69 69 70 67 71 77 78 83 88
96 95 92 90 87 75 74 73 73 75 70 71 70 67 59 62 66 65 61 65 67 63 65 63 60 57 58 59 62 64 63 64 66 70 74 71 73 77 76 78 78 76 80 84 86 88 91
103 101 101 90 83 80 80 76 81 80 74 76 78 76 77 69 68 71 72 73 70 67 67 66 71 68 69 71 67 67 70 71 72 74 76 79 82 83 83 84 82 87 88 92 97 96 99
108 104 96 90 86 85 84 83 81 86 83 79 79 84 81 76 76 72 72 78 78 78 76 73 74 76 78 80 79 79 79 80 82 79 80 86 89 90 92 95 95 96 98 102 105 107 103
111 105 102 99 97 93 94 87 87 89 90 88 85 85 89 86 77 82 79 74 80 83 86 87 87 87 86 88 88 88 89 89 89 86 86 90 92 95 99 103 100 101 108 108 111 110 112
114 115 109 106 102 101 100 97 96 94 97 95 97 95 90 93 95 91 86 86 86 83 83 87 88 91 95 92 96 97 98 95 96 96 101 102 103 103 105 108 107 105 108 111 113 115 117
122 120 116 109 110 107 105 106 103 100 101 101 103 99 97 94 97 97 97 95 94 93 92 95 97 96 98 101 103 103 102 104 107 107 106 104 107 111 111 114 111 110 112 114 115 117 122
Wind_Direction
15 16 18 19 19 23 24 25 28 31 33 39 46 54 66 82 104 123 134 145 154 160 165 171 177 181 186 189 194 198 202 206 208 212 218 227 232 236 240 242 246 252 255 259 264 271 277
14 17 18 20 22 24 28 27 31 32 34 41 48 58 67 79 98 112 126 136 148 155 163 171 177 181 185 188 194 198 201 205 209 212 220 227 233 238 243 244 249 254 255 260 266 273 278
13 14 17 19 21 24 28 33 32 36 37 44 52 63 68 80 94 110 121 131 144 153 165 171 177 181 185 189 193 198 202 205 210 214 220 225 229 233 239 242 250 253 258 264 268 275 283
11 15 14 16 19 23 26 33 37 38 41 42 52 64 73 79 89 102 117 130 141 151 162 171 178 183 187 191 194 198 203 207 213 216 218 223 225 233 240 243 251 253 259 265 270 277 280
11 13 15 17 15 20 26 30 37 41 44 47 49 59 70 77 89 100 112 128 140 149 158 169 178 185 189 193 197 201 206 211 214 214 216 222 227 236 236 245 250 253 261 266 271 275 280
7 12 13 14 15 15 22 27 33 40 46 48 52 53 64 76 86 98 112 124 137 149 159 167 177 185 191 195 198 202 207 208 208 212 216 219 230 235 238 245 249 257 262 267 272 278 284
2 8 6 10 11 16 15 23 31 35 43 51 55 60 60 68 83 98 111 123 135 146 156 166 173 181 186 190 195 198 200 203 205 210 216 223 231 234 242 246 252 258 264 269 275 280 283
353 355 357 357 5 13 16 15 23 30 36 45 53 61 67 73 72 95 113 126 137 147 157 164 170 177 182 188 190 195 198 201 204 211 217 226 230 238 244 248 254 260 266 271 275 280 284
337 348 349 359 2 6 9 13 16 21 29 38 44 56 64 72 82 82 105 131 146 154 161 168 173 178 182 185 189 194 197 202 209 215 221 228 235 241 248 253 257 263 267 271 277 283 284
330 334 346 349 356 356 358 4 12 18 20 26 41 43 53 64 74 88 98 116 137 159 167 172 175 180 185 188 193 200 204 209 217 222 228 232 238 244 250 255 259 265 268 273 279 282 286
327 335 334 343 345 351 352 355 2 12 17 19 23 36 47 52 55 77 90 115 136 162 176 180 184 188 191 197 203 209 213 218 224 229 232 236 241 247 253 259 263 267 271 276 279 282 286
315 325 324 326 332 338 341 348 349 348 360 10 19 22 25 42 55 52 59 95 145 178 188 196 200 204 206 209 212 216 223 227 229 234 238 242 245 251 256 262 268 271 273 276 281 282 284
306 309 313 315 311 319 322 330 333 337 341 340 352 5 19 28 27 47 63 59 274 228 212 215 213 215 217 217 219 223 228 232 235 239 242 246 251 255 259 263 268 272 275 276 279 279 277
302 302 303 307 304 303 307 313 317 310 309 323 320 322 332 333 346 341 338 339 316 236 230 243 242 235 232 230 231 235 237 238 242 245 247 251 257 261 264 268 272 274 275 274 273 271 271
289 294 299 297 299 294 293 294 303 307 307 303 308 309 303 300 295 285 285 278 266 269 264 249 240 237 243 247 250 251 252 253 254 257 260 261 263 264 264 264 265 265 266 267 267 268 269
280 288 289 294 295 295 284 286 282 293 295 299 296 299 293 294 286 282 280 274 276 272 267 264 260 250 244 244 245 247 249 252 254 255 255 254 254 258 260 262 264 267 269 271 273 274 275
276 278 281 289 289 287 283 277 272 275 284 286 285 282 287 291 294 288 286 285 276 272 268 267 271 268 266 267 265 259 255 256 257 259 261 262 264 263 265 266 267 268 270 273 275 277 277
272 269 272 279 283 286 281 277 272 265 268 276 278 278 280 283 280 286 291 291 290 287 277 275 268 266 268 268 265 264 264 264 264 264 262 263 264 266 268 269 272 274 275 276 277 279 282
266 268 269 267 275 283 280 271 273 268 261 265 275 272 276 281 273 282 285 285 289 291 290 282 278 275 271 271 267 267 268 268 268 268 267 267 268 270 272 274 277 278 279 280 280 280 281
267 264 266 265 273 273 275 269 268 266 267 261 262 268 269 274 276 276 275 286 281 282 284 285 282 280 280 279 275 274 272 268 268 269 270 270 273 273 272 271 271 274 275 277 278 280 280
264 262 263 266 267 268 271 265 262 264 264 258 259 261 267 271 265 272 273 279 282 274 278 277 276 275 276 275 273 275 272 274 275 275 275 275 278 277 276 275 275 275 275 276 280 281 282
261 262 262 264 261 259 267 257 261 261 262 262 257 256 258 266 268 260 267 273 273 274 271 273 272 275 272 272 276 272 268 273 270 273 273 276 273 274 274 277 278 277 280 279 283 281 284
259 258 259 261 264 267 259 255 255 258 259 255 256 257 253 259 262 266 262 260 271 270 269 275 277 270 270 268 269 270 270 274 276 281 282 283 278 275 273 275 273 278 281 285 288 289 287
257 256 259 260 262 258 255 253 252 254 256 258 253 252 257 258 259 263 262 263 264 265 270 272 269 271 269 268 273 270 270 272 274 276 277 272 276 281 280 278 279 280 279 282 285 286 287
256 255 258 258 253 256 254 252 252 251 255 254 258 251 258 258 257 258 261 265 267 265 266 267 268 269 267 269 273 270 271 271 274 277 277 278 277 278 280 279 281 282 283 284 284 283 283
253 253 254 253 248 250 253 253 253 250 254 255 257 255 255 260 260 261 261 258 262 266 268 267 268 269 269 271 270 271 274 275 274 275 278 281 281 284 285 283 285 287 288 286 284 284 286
251 249 252 250 252 252 251 252 252 252 255 255 258 258 257 256 260 264 263 264 262 263 266 268 270 273 271 274 272 273 276 276 275 279 282 281 283 286 287 286 286 286 286 286 286 288 288
248 247 250 249 250 251 249 252 248 255 255 257 258 262 263 259 259 263 264 264 268 267 268 264 267 270 270 274 275 276 276 277 279 280 280 283 284 287 288 291 291 288 287 286 287 289 290
248 247 247 247 247 249 249 249 249 251 253 258 256 260 263 261 259 261 265 265 265 266 267 271 272 271 271 270 273 273 276 276 278 280 280 282 283 286 289 291 292 289 288 289 290 290 291